Location: Allie Creek
(37.5926°N, 89.8526°W)
Time: 01:24:41
(UTC+00:00)

Meteor 1-27 Rocket - Visible Passes

Search period start: 14 April 2024 00:00
Search period end: 24 April 2024 00:00
Orbit: 830 x 909 km, 81.3° (Epoch: 13 April)

Date Brightness Start Highest point End Pass type
(mag) Time Alt. Az. Time Alt. Az. Time Alt. Az.
14 Apr 5.2 08:04:14 31° E 08:04:28 31° E 08:09:25 10° NNE visible
14 Apr 4.5 09:46:39 30° W 09:47:40 32° WNW 09:52:45 10° NNW visible
15 Apr 5.2 07:58:07 31° E 07:58:07 31° E 08:03:00 10° NNE visible
15 Apr 4.6 09:40:33 30° W 09:41:14 31° WNW 09:46:17 10° NNW visible
16 Apr 5.1 07:51:59 32° E 07:51:59 32° E 07:56:34 10° NNE visible
16 Apr 4.6 09:34:24 30° W 09:34:48 30° WNW 09:39:48 10° NNW visible
17 Apr 5.2 07:45:48 32° ENE 07:45:48 32° ENE 07:50:09 10° NNE visible
17 Apr 4.7 09:28:13 29° WNW 09:28:22 29° WNW 09:33:18 10° NNW visible
18 Apr 5.2 07:39:37 32° ENE 07:39:37 32° ENE 07:43:43 10° NNE visible
18 Apr 4.8 09:22:01 29° WNW 09:22:01 29° WNW 09:26:49 10° NNW visible
19 Apr 5.2 07:33:23 32° ENE 07:33:23 32° ENE 07:37:18 10° NNE visible
19 Apr 4.8 09:15:47 28° WNW 09:15:47 28° WNW 09:20:20 10° NNW visible
20 Apr 5.2 07:27:08 31° ENE 07:27:08 31° ENE 07:30:52 10° NNE visible
20 Apr 4.9 09:09:32 27° WNW 09:09:32 27° WNW 09:13:50 10° NNW visible
21 Apr 5.2 07:20:51 31° ENE 07:20:51 31° ENE 07:24:27 10° NNE visible
21 Apr 5.0 09:03:16 26° WNW 09:03:16 26° WNW 09:07:21 10° NNW visible
22 Apr 5.3 07:14:34 31° NE 07:14:34 31° NE 07:18:01 10° NNE visible
22 Apr 5.1 08:56:58 25° WNW 08:56:58 25° WNW 09:00:51 10° NNW visible
23 Apr 5.3 07:08:15 30° NE 07:08:15 30° NE 07:11:34 10° NNE visible
23 Apr 5.1 08:50:40 24° WNW 08:50:40 24° WNW 08:54:21 10° NNW visible
